DW5977 Weather Reports


Display with metric or nautical units.
time (UTC)temp
F
wind
direction
speed
MPH
gust
MPH
rain 1hr
in
rain 24hr
in
rain mn
in
humidity
%
barometer
mb
20260903065503 69 189 1.0 4.0 0.00 0.59 0.00 89 1013.0
20260903065003 69 189 1.0 4.0 0.00 0.59 0.00 89 1013.1
20260903064503 69 189 2.0 4.0 0.00 0.59 0.00 89 1013.2
20260903064003 69 195 2.0 6.0 0.00 0.59 0.00 89 1013.3
20260903063503 69 206 2.0 9.0 0.00 0.59 0.00 89 1013.3
20260903063003 69 207 3.0 11.0 0.00 0.59 0.00 89 1013.2
20260903062503 69 191 3.0 11.0 0.00 0.59 0.00 89 1013.4
20260903062003 69 179 3.0 11.0 0.00 0.59 0.00 89 1013.5
20260903061503 69 185 3.0 10.0 0.00 0.59 0.00 90 1013.4
20260903061003 69 190 4.0 10.0 0.00 0.59 0.00 90 1013.3
20260903060503 69 193 4.0 10.0 0.00 0.59 0.00 90 1013.4
20260903060003 69 190 3.0 9.0 0.00 0.59 0.00 91 1013.3
20260903055503 69 187 2.0 8.0 0.00 0.59 0.00 91 1013.2
20260903055024 69 186 2.0 6.0 0.00 0.59 0.00 91 1013.1
20260903054503 69 185 2.0 7.0 0.00 0.59 0.00 91 1013.0
20260903054003 69 183 2.0 7.0 0.00 0.59 0.00 91 1013.1
20260903053503 69 181 2.0 7.0 0.00 0.59 0.00 91 1013.1
20260903053003 69 183 1.0 7.0 0.00 0.59 0.00 91 1013.5
20260903052524 69 187 1.0 6.0 0.00 0.59 0.00 91 1013.4
20260903052003 69 187 1.0 3.0 0.00 0.59 0.00 91 1013.5
20260903051504 69 187 1.0 3.0 0.00 0.59 0.00 91 1013.3
20260903051004 69 187 1.0 3.0 0.00 0.59 0.00 91 1013.6
20260903050503 69 187 1.0 4.0 0.00 0.59 0.00 91 1013.3
20260903050003 69 187 2.0 5.0 0.00 0.59 0.00 91 1013.5
20260903045503 69 187 2.0 5.0 0.00 0.59 0.00 91 1013.4
20260903045003 69 186 2.0 6.0 0.00 0.59 0.00 91 1013.4
20260903044503 69 185 3.0 6.0 0.00 0.59 0.00 91 1013.5
20260903044003 69 184 2.0 5.0 0.00 0.59 0.00 91 1013.5
20260903043503 69 182 2.0 6.0 0.00 0.59 0.00 91 1013.3
20260903043003 69 180 2.0 7.0 0.00 0.59 0.00 91 1013.4
20260903042503 69 181 2.0 7.0 0.00 0.59 0.00 91 1013.0
20260903042003 68 181 2.0 5.0 0.00 0.59 0.00 91 1012.9
20260903041503 68 179 2.0 5.0 0.00 0.59 0.00 91 1013.1
20260903041003 68 178 2.0 5.0 0.00 0.59 0.00 91 1012.9
20260903040503 68 176 1.0 5.0 0.00 0.59 0.00 91 1012.8
20260903040003 68 177 2.0 5.0 0.01 0.59 0.00 91 1012.7
20260903035524 68 177 2.0 5.0 0.01 0.59 0.59 91 1012.6
20260903035024 68 178 1.0 4.0 0.01 0.59 0.59 91 1012.4
20260903034503 68 178 1.0 4.0 0.01 0.59 0.59 91 1012.5
20260903034003 68 177 1.0 5.0 0.01 0.59 0.59 91 1012.6
20260903033503 69 177 1.0 5.0 0.01 0.59 0.59 91 1012.7
20260903033003 69 177 2.0 6.0 0.01 0.59 0.59 91 1012.8
20260903032503 69 176 2.0 6.0 0.01 0.59 0.59 91 1013.0
20260903032003 69 180 2.0 7.0 0.01 0.59 0.59 91 1013.1
20260903031503 69 183 2.0 7.0 0.01 0.59 0.59 91 1013.4
20260903031003 69 181 1.0 5.0 0.01 0.59 0.59 91 1013.5
20260903030503 69 181 1.0 3.0 0.01 0.59 0.59 91 1013.5
20260903030003 69 181 1.0 4.0 0.01 0.58 0.59 91 1013.4
20260903025524 70 181 1.0 4.0 0.01 0.58 0.58 91 1013.6
20260903025024 70 181 1.0 4.0 0.01 0.58 0.58 91 1014.0
20260903024503 70 181 0.0 3.0 0.01 0.58 0.58 91 1014.0
20260903024003 70 181 0.0 2.0 0.01 0.58 0.58 91 1013.8
20260903023503 70 181 1.0 4.0 0.03 0.58 0.58 91 1014.0
20260903023003 70 181 1.0 4.0 0.15 0.58 0.58 91 1014.0
20260903022503 70 179 2.0 7.0 0.19 0.58 0.58 91 1013.9
20260903022003 70 171 3.0 7.0 0.19 0.58 0.58 90 1014.0
20260903021503 70 160 2.0 6.0 0.19 0.58 0.58 90 1014.0
20260903021003 70 163 1.0 5.0 0.19 0.58 0.58 90 1014.1
20260903020524 70 191 1.0 4.0 0.19 0.58 0.58 90 1013.9
20260903020003 70 180 2.0 8.0 0.18 0.57 0.57 90 1014.1
20260903015503 70 162 3.0 10.0 0.18 0.57 0.57 90 1014.3
20260903015024 70 152 3.0 10.0 0.18 0.57 0.57 90 1014.1
20260903014503 70 169 3.0 10.0 0.18 0.57 0.57 90 1014.0
20260903014024 70 169 5.0 15.0 0.19 0.57 0.57 90 1014.3
20260903013524 70 176 4.0 15.0 0.17 0.55 0.55 90 1014.4
20260903013003 70 184 3.0 8.0 0.06 0.43 0.43 90 1015.4
20260903012503 70 159 2.0 8.0 0.03 0.39 0.40 90 1013.6
20260903012003 70 148 2.0 5.0 0.04 0.39 0.39 90 1012.9
20260903011503 70 144 2.0 5.0 0.05 0.39 0.39 90 1012.9
20260903011024 70 140 2.0 8.0 0.05 0.39 0.39 90 1013.5
20260903010503 70 149 2.0 8.0 0.06 0.39 0.39 90 1013.8
20260903010003 70 156 2.0 7.0 0.07 0.39 0.39 90 1014.1
20260903005503 70 150 2.0 7.0 0.08 0.39 0.39 89 1014.2
20260903005024 70 118 2.0 6.0 0.09 0.39 0.39 89 1013.8
20260903004503 70 34 1.0 2.0 0.10 0.39 0.39 89 1013.6
20260903004003 70 34 1.0 3.0 0.09 0.38 0.38 88 1012.9
20260903003503 70 28 1.0 5.0 0.09 0.38 0.38 88 1012.7
20260903003003 70 42 2.0 14.0 0.09 0.37 0.37 88 1012.9
20260903002503 70 40 3.0 14.0 0.14 0.36 0.36 89 1012.5
20260903002003 70 29 2.0 6.0 0.26 0.35 0.35 89 1013.2
20260903001503 70 30 2.0 4.0 0.31 0.34 0.34 89 1012.8
20260903001003 71 48 2.0 4.0 0.34 0.34 0.34 89 1012.9
20260903000503 71 35 2.0 4.0 0.33 0.33 0.33 89 1013.2
20260903000004 71 323 2.0 13.0 0.32 0.32 0.32 88 1013.1
20260902235503 71 303 4.0 13.0 0.31 0.31 0.31 88 1013.0
20260902235024 72 288 6.0 15.0 0.30 0.30 0.30 87 1012.0
20260902234503 72 281 8.0 18.0 0.29 0.29 0.29 86 1011.6
20260902234003 72 284 7.0 18.0 0.29 0.29 0.29 86 1011.8
20260902233503 72 283 7.0 16.0 0.29 0.29 0.29 86 1011.9
20260902233024 72 274 9.0 23.0 0.28 0.28 0.29 86 1012.6
20260902232524 73 276 10.0 23.0 0.22 0.22 0.23 84 1012.9
20260902232003 75 281 7.0 19.0 0.09 0.09 0.09 81 1013.5
20260902231503 78 273 5.0 13.0 0.03 0.03 0.03 82 1013.6
20260902231003 79 245 4.0 12.0 0.00 0.00 0.00 82 1013.5
20260902230503 79 219 3.0 9.0 0.00 0.00 0.00 82 1012.6
20260902230004 79 231 4.0 12.0 0.00 0.00 0.00 82 1012.4
20260902225503 79 230 4.0 13.0 0.00 0.00 0.00 81 1012.0
20260902225003 80 231 4.0 13.0 0.00 0.00 0.00 80 1011.9
20260902224524 80 241 4.0 11.0 0.00 0.00 0.00 80 1012.0
20260902224003 80 240 3.0 9.0 0.00 0.00 0.00 79 1012.1
20260902223504 81 233 4.0 10.0 0.00 0.00 0.00 79 1012.2
20260902223003 81 234 4.0 11.0 0.00 0.00 0.00 78 1012.2
20260902222503 82 234 3.0 11.0 0.00 0.00 0.00 78 1012.3
20260902222004 82 229 3.0 9.0 0.00 0.00 0.00 77 1012.3
20260902221524 82 230 2.0 8.0 0.00 0.00 0.00 77 1012.2
20260902221003 82 234 2.0 7.0 0.00 0.00 0.00 77 1012.2
20260902220503 82 238 2.0 7.0 0.00 0.00 0.00 77 1011.9
20260902220003 83 217 2.0 7.0 0.00 0.00 0.00 77 1011.8
20260902215503 83 196 2.0 5.0 0.00 0.00 0.00 77 1011.8
20260902215024 83 190 2.0 5.0 0.00 0.00 0.00 76 1011.7
20260902214504 83 185 2.0 5.0 0.00 0.00 0.00 75 1011.5
20260902214024 83 190 2.0 5.0 0.00 0.00 0.00 75 1011.4
20260902213503 83 202 2.0 5.0 0.00 0.00 0.00 75 1011.4
20260902213003 83 200 2.0 6.0 0.00 0.00 0.00 75 1011.5
20260902212524 82 201 2.0 7.0 0.00 0.00 0.00 76 1011.8
20260902212003 82 204 2.0 7.0 0.00 0.00 0.00 77 1012.0
20260902211503 82 211 2.0 5.0 0.00 0.00 0.00 77 1012.2
20260902211003 81 233 1.0 5.0 0.00 0.00 0.00 78 1012.5
20260902210524 81 250 1.0 3.0 0.00 0.00 0.00 78 1012.5
20260902210003 81 250 1.0 5.0 0.00 0.00 0.00 78 1012.7
20260902205524 81 250 1.0 5.0 0.00 0.00 0.00 78 1012.7
20260902205024 81 240 2.0 8.0 0.00 0.00 0.00 77 1012.8
20260902204503 81 233 3.0 9.0 0.00 0.00 0.00 77 1013.0
20260902204003 81 222 4.0 9.0 0.00 0.00 0.00 76 1013.0
20260902203503 82 213 3.0 9.0 0.00 0.00 0.00 75 1013.3
20260902203003 82 220 3.0 7.0 0.00 0.00 0.00 75 1013.3
20260902202503 82 223 3.0 10.0 0.00 0.00 0.00 75 1013.5
20260902202024 82 217 3.0 10.0 0.00 0.00 0.00 75 1013.4
20260902201503 82 224 3.0 10.0 0.00 0.00 0.00 74 1013.5
20260902201003 82 230 4.0 12.0 0.00 0.00 0.00 75 1013.6
20260902200503 82 229 5.0 13.0 0.00 0.00 0.00 74 1013.9
20260902200024 82 238 5.0 14.0 0.00 0.00 0.00 73 1014.1
20260902195503 83 232 6.0 14.0 0.00 0.00 0.00 72 1014.4
20260902195003 83 231 6.0 14.0 0.00 0.00 0.00 72 1014.4
20260902194503 84 236 5.0 14.0 0.00 0.00 0.00 70 1014.3
20260902194003 84 227 5.0 13.0 0.00 0.00 0.00 70 1014.1
20260902193503 84 236 6.0 16.0 0.00 0.00 0.00 69 1014.2
20260902193003 85 241 5.0 16.0 0.00 0.00 0.00 68 1014.3
20260902192503 85 234 4.0 12.0 0.00 0.00 0.00 70 1014.0
20260902192004 84 237 4.0 12.0 0.00 0.00 0.00 71 1014.0
20260902191503 84 235 4.0 13.0 0.00 0.00 0.00 72 1014.2
20260902191003 84 228 5.0 13.0 0.00 0.00 0.00 70 1014.4
20260902190503 84 214 4.0 13.0 0.00 0.00 0.00 70 1014.4
20260902190003 84 221 4.0 14.0 0.00 0.00 0.00 72 1014.3
20260902185503 84 224 6.0 15.0 0.00 0.00 0.00 70 1014.3
20260902185003 84 217 5.0 15.0 0.00 0.00 0.00 71 1014.3
20260902184524 84 228 5.0 15.0 0.00 0.00 0.00 69 1014.3
20260902184003 84 235 4.0 14.0 0.00 0.00 0.00 69 1014.3
20260902183524 84 239 5.0 13.0 0.00 0.00 0.00 71 1014.2
20260902183003 84 237 5.0 13.0 0.00 0.00 0.00 70 1014.2
20260902182503 83 214 4.0 13.0 0.00 0.00 0.00 71 1014.2
20260902182004 83 203 5.0 13.0 0.00 0.00 0.00 70 1014.2
20260902181503 83 205 4.0 14.0 0.00 0.00 0.00 71 1014.3
20260902181003 83 211 4.0 14.0 0.00 0.00 0.00 72 1014.3
20260902180524 82 220 4.0 11.0 0.00 0.00 0.00 73 1014.2
20260902180006 82 216 5.0 11.0 0.00 0.00 0.00 74 1014.3
20260902175524 81 200 4.0 11.0 0.00 0.00 0.00 74 1014.3
20260902175024 81 196 4.0 9.0 0.00 0.00 0.00 76 1014.5
20260902174503 80 187 4.0 8.0 0.00 0.00 0.00 78 1014.6
20260902174003 79 182 3.0 8.0 0.00 0.00 0.00 80 1014.7
20260902173503 79 183 3.0 7.0 0.00 0.00 0.00 80 1014.7
20260902173003 78 188 2.0 6.0 0.00 0.00 0.00 82 1014.8
20260902172503 78 246 1.0 3.0 0.00 0.00 0.00 86 1015.2
20260902172004 77 247 1.0 3.0 0.00 0.00 0.00 84 1015.1
20260902171524 77 251 0.0 3.0 0.00 0.00 0.00 83 1015.3
20260902171003 77 254 1.0 3.0 0.00 0.00 0.00 83 1015.3
20260902170503 77 260 1.0 6.0 0.00 0.00 0.00 81 1015.4
20260902170004 77 269 2.0 6.0 0.00 0.00 0.00 81 1015.9
20260902165524 77 251 2.0 6.0 0.00 0.00 0.00 81 1016.1
20260902165024 77 206 2.0 4.0 0.00 0.00 0.00 81 1016.0
20260902164503 77 198 2.0 5.0 0.00 0.00 0.00 81 1015.2
20260902164003 78 195 1.0 7.0 0.00 0.00 0.00 80 1014.9
20260902163503 78 194 1.0 7.0 0.00 0.00 0.00 80 1015.2
20260902163003 78 223 3.0 12.0 0.00 0.00 0.00 78 1014.7
20260902162504 78 228 4.0 12.0 0.00 0.00 0.00 77 1014.9
20260902162004 79 226 4.0 11.0 0.00 0.00 0.00 75 1014.9
20260902161525 79 228 3.0 7.0 0.00 0.00 0.00 75 1014.9
20260902161003 80 232 3.0 8.0 0.00 0.00 0.00 75 1014.9
20260902160503 80 221 3.0 8.0 0.00 0.00 0.00 76 1015.2
20260902160024 79 233 3.0 10.0 0.00 0.00 0.00 76 1015.2
20260902155503 79 233 3.0 10.0 0.00 0.00 0.00 75 1015.2
20260902155003 79 213 3.0 9.0 0.00 0.00 0.00 76 1015.1
20260902154503 79 215 3.0 12.0 0.00 0.00 0.00 75 1015.1
20260902154003 79 210 4.0 12.0 0.00 0.00 0.00 75 1015.1
20260902153524 79 197 4.0 11.0 0.00 0.00 0.00 76 1015.1
20260902153024 79 199 4.0 11.0 0.00 0.00 0.00 75 1015.0
20260902152503 79 215 3.0 9.0 0.00 0.00 0.00 76 1015.5
20260902152003 79 210 3.0 12.0 0.00 0.00 0.00 77 1015.5
20260902151503 78 210 3.0 12.0 0.00 0.00 0.00 78 1015.6
20260902151003 78 195 4.0 9.0 0.00 0.00 0.00 79 1015.7
20260902150503 78 179 3.0 9.0 0.00 0.00 0.00 79 1015.7
20260902150003 77 170 4.0 9.0 0.00 0.00 0.00 80 1015.8
20260902145503 77 160 3.0 9.0 0.00 0.00 0.00 80 1015.8
20260902145003 76 151 3.0 8.0 0.00 0.00 0.00 81 1016.1
20260902144503 76 141 3.0 6.0 0.00 0.00 0.00 81 1016.1
20260902144024 75 139 3.0 6.0 0.00 0.00 0.00 82 1015.9
20260902143524 75 156 3.0 8.0 0.00 0.00 0.00 81 1016.0
20260902143003 75 145 3.0 8.0 0.00 0.00 0.00 82 1016.3
20260902142503 75 133 2.0 7.0 0.00 0.00 0.00 83 1016.3
20260902142003 74 146 2.0 7.0 0.00 0.00 0.00 84 1016.1
20260902141503 74 142 2.0 7.0 0.00 0.00 0.00 85 1016.3
20260902141003 73 141 2.0 4.0 0.00 0.00 0.00 85 1016.2
20260902140503 73 141 2.0 4.0 0.00 0.00 0.00 85 1016.4
20260902140003 72 122 2.0 4.0 0.00 0.00 0.00 86 1016.3
20260902135524 72 102 1.0 4.0 0.00 0.00 0.00 86 1016.3
20260902135003 72 93 1.0 4.0 0.00 0.00 0.00 86 1016.3
20260902134503 72 93 1.0 3.0 0.00 0.00 0.00 86 1016.3
20260902134003 72 93 1.0 2.0 0.00 0.00 0.00 86 1016.2
20260902133524 72 93 1.0 3.0 0.00 0.00 0.00 85 1016.3
20260902133024 72 93 1.0 3.0 0.00 0.00 0.00 85 1016.2
20260902132503 72 79 1.0 4.0 0.00 0.00 0.00 85 1016.3
20260902132003 72 70 1.0 4.0 0.00 0.00 0.00 84 1016.2
20260902131503 72 55 0.0 3.0 0.00 0.00 0.00 84 1016.2
20260902131003 72 55 0.0 2.0 0.00 0.00 0.00 84 1016.3
20260902130503 72 55 0.0 3.0 0.00 0.00 0.00 84 1016.5
20260902130003 72 55 1.0 4.0 0.00 0.00 0.00 84 1016.7
20260902125503 72 56 1.0 4.0 0.00 0.00 0.00 84 1016.6
20260902125003 72 23 2.0 8.0 0.00 0.00 0.00 83 1016.7
20260902124503 73 353 4.0 14.0 0.00 0.00 0.00 84 1016.8
20260902124003 73 334 4.0 14.0 0.00 0.00 0.00 84 1017.1
20260902123503 74 290 3.0 11.0 0.00 0.00 0.00 86 1017.1
20260902123003 74 239 2.0 7.0 0.00 0.00 0.00 87 1016.7
20260902122503 74 234 2.0 7.0 0.00 0.00 0.00 88 1016.1
20260902122003 74 222 3.0 8.0 0.00 0.00 0.00 89 1015.3
20260902121503 74 213 3.0 8.0 0.00 0.00 0.00 90 1015.2
20260902121003 73 198 3.0 9.0 0.00 0.00 0.00 91 1014.9
20260902120503 73 186 3.0 9.0 0.00 0.00 0.00 92 1014.9
20260902120024 72 190 2.0 9.0 0.00 0.00 0.00 93 1015.0
20260902115524 72 199 1.0 6.0 0.00 0.00 0.00 93 1014.6
20260902115024 71 0 0.0 0.0 0.00 0.00 0.00 93 1014.5
20260902114524 71 0 0.0 0.0 0.00 0.00 0.00 92 1014.5
20260902114003 71 0 0.0 0.0 0.00 0.00 0.00 92 1014.1
20260902113503 71 0 0.0 0.0 0.00 0.00 0.00 92 1014.0
20260902113003 71 0 0.0 0.0 0.00 0.00 0.00 92 1014.1
20260902112503 71 0 0.0 0.0 0.00 0.00 0.00 92 1014.4
20260902112003 71 0 0.0 0.0 0.00 0.00 0.00 92 1014.4
20260902111503 71 0 0.0 0.0 0.00 0.00 0.00 92 1014.4
20260902111024 71 0 0.0 0.0 0.00 0.00 0.00 92 1014.1
20260902110503 71 0 0.0 0.0 0.00 0.00 0.00 92 1013.8
20260902110005 71 0 0.0 0.0 0.00 0.00 0.00 93 1013.8
20260902105503 71 0 0.0 0.0 0.00 0.00 0.00 92 1013.7
20260902105003 71 0 0.0 0.0 0.00 0.00 0.00 92 1013.7
20260902104503 71 0 0.0 0.0 0.00 0.00 0.00 92 1013.6
20260902104024 71 0 0.0 0.0 0.00 0.00 0.00 92 1013.7
20260902103524 71 0 0.0 0.0 0.00 0.00 0.00 92 1013.6
20260902103003 71 0 0.0 0.0 0.00 0.00 0.00 92 1013.8
20260902102503 71 0 0.0 0.0 0.00 0.00 0.00 92 1014.0
20260902102003 71 0 0.0 0.0 0.00 0.00 0.00 92 1013.7
20260902101503 71 0 0.0 0.0 0.00 0.00 0.00 92 1013.7
20260902101003 71 0 0.0 0.0 0.00 0.00 0.00 92 1013.5
20260902100503 71 0 0.0 0.0 0.00 0.00 0.00 92 1013.6
20260902100024 71 0 0.0 0.0 0.00 0.00 0.00 92 1013.5
20260902095503 71 0 0.0 0.0 0.00 0.00 0.00 92 1013.8
20260902095024 71 0 0.0 0.0 0.00 0.00 0.00 92 1014.1
20260902094503 71 0 0.0 0.0 0.00 0.00 0.00 92 1014.0
20260902094024 71 0 0.0 0.0 0.00 0.00 0.00 92 1014.0
20260902093524 72 0 0.0 0.0 0.00 0.00 0.00 92 1013.9
20260902093003 72 0 0.0 0.0 0.00 0.00 0.00 92 1014.1
20260902092503 72 0 0.0 0.0 0.00 0.00 0.00 92 1014.2
20260902092003 72 188 0.0 3.0 0.00 0.00 0.00 92 1014.3
20260902091503 72 188 0.0 3.0 0.00 0.00 0.00 92 1014.4
20260902091003 72 188 0.0 2.0 0.00 0.00 0.00 92 1014.3
20260902090503 72 188 0.0 2.0 0.00 0.00 0.00 93 1014.6
20260902090004 72 188 0.0 2.0 0.00 0.00 0.00 93 1014.4
20260902085503 72 0 0.0 0.0 0.00 0.00 0.00 93 1014.5
20260902085003 72 189 0.0 2.0 0.00 0.00 0.00 93 1014.6
20260902084524 72 189 0.0 3.0 0.00 0.00 0.00 93 1014.6
20260902084003 71 189 0.0 3.0 0.00 0.00 0.00 93 1014.6
20260902083503 71 0 0.0 0.0 0.00 0.00 0.00 93 1014.6
20260902083003 71 0 0.0 0.0 0.00 0.00 0.00 93 1014.7
20260902082503 71 0 0.0 0.0 0.00 0.00 0.00 93 1014.7
20260902082003 71 0 0.0 0.0 0.00 0.00 0.00 93 1014.9
20260902081503 72 0 0.0 0.0 0.00 0.00 0.00 93 1015.0
20260902081003 72 0 0.0 0.0 0.00 0.00 0.00 93 1015.0
20260902080503 71 0 0.0 0.0 0.00 0.00 0.00 93 1015.0
20260902080003 71 0 0.0 0.0 0.00 0.00 0.00 93 1015.1
20260902075503 71 0 0.0 0.0 0.00 0.00 0.00 93 1015.2
20260902075003 71 0 0.0 0.0 0.00 0.00 0.00 93 1015.2
20260902074503 71 0 0.0 0.0 0.00 0.00 0.00 93 1015.2
20260902074003 71 0 0.0 0.0 0.00 0.00 0.00 93 1015.1
20260902073503 71 0 0.0 0.0 0.00 0.00 0.00 93 1015.0
20260902073003 71 0 0.0 0.0 0.00 0.00 0.00 93 1015.0
20260902072503 71 0 0.0 0.0 0.00 0.00 0.00 93 1015.1
20260902072024 71 0 0.0 0.0 0.00 0.00 0.00 93 1015.1
20260902071503 71 0 0.0 0.0 0.00 0.00 0.00 93 1015.2
20260902071003 71 0 0.0 0.0 0.00 0.00 0.00 93 1015.3
20260902070503 71 0 0.0 0.0 0.00 0.00 0.00 93 1015.3
20260902070004 71 0 0.0 0.0 0.00 0.00 0.00 93 1015.3